STARLINK-3781, 52272

Orbit data source: Space-Track

STARLINK-3781, 52272 is a payload satellite owned by SpaceX/Seattle (US) in LEO that was launched on Thu, 21 Apr 2022 UTC via an FALCON 9 launch vehicle from the Air Force Eastern Test Range (AFETR). Payload-class satellites include a variety of spacecraft equipped with specific instruments for various scientific and technological missions. These include communications satellites like Starlink; space stations such as the ISS; scientific satellites like the Hubble; Earth observation satellites from companies like Planet Labs, Umbra, and HawkEye 360; GPS; miniature CubeSats for education and research; and military/defense satellites.

Loading next visibility...
Identifier
52272, 2022-041M
Orbit
LEO
Country
Flag of USUS
Related business
Manufacturer
SpaceX/Seattle
Mission
Operational Commercial Communications
Bus & Motor
STARLINK, Unknown motor
Mass
297 kg wet, ~275 kg dry
Launch date (UTC)
2022-04-21 (4 years ago)
Launch vehicle
FALCON 9
Launch site
Air Force Eastern Test Range (AFETR)
Object type
Payload
Rocket body
Debris
Shape & HBR
Box + 1 Pan, 10.1 m
Radar Cross Section
11.087 m², Large (>1 m²)

Expand to show TLE details & history
Last TLE update: 15 hours ago

TLE from 15 hours ago
0 STARLINK-3781
1 52272U 22041M   26129.88927389  .00000116  00000-0  25399-4 0  9991
2 52272  53.2163 194.4246 0001135  84.4936 275.6185 15.08838226223604
Epoch: 2026-05-09T21:20Z
TLE epoch observation values (Epoch: 2026-05-09T21:20:33.264Z)
Latitude
-0.00005°
Longitude
6.58573°
Altitude
540.569 km
Speed
7.593 km/s
True Right ascension
12h 57m 41s
True Declination
0° 00' 00"
Sunlit
Object was in full shadow at epoch
Visualization orbit readout
Latitude
Unknown
Longitude
Unknown
Altitude
Unknown
Speed
Unknown
Apparent Right ascension
Unknown
Apparent Declination
Unknown
Sunlit
N/A
Visualization observer readout
Local Sidereal Time
20:35:31
Azimuth
Unknown
Elevation
Unknown
Doppler factor
Unknown
Orbital elements
Apogee altitude
540.779 km
Perigee altitude
539.209 km
Semi-major axis
6,918.131 km
Eccentricity
0.00011
Inclination
53.2163°
RAAN
194.4246°
Arg. of periapsis
84.4936°
True anomaly
275.60556°
Mean anomaly
275.6185°
Eccentric anomaly
275.61203°
Mean motion
3.7719 °/min
Orbital period
95.44 mins
BSTAR
0.000025399
Loading maneuver chart data...
Computing Atmospheric mass density...
Loading historical data...
Loading historical data...
Loading historical data...
Loading historical data...
Loading historical data...
Loading historical data...
Loading historical data...

Documentation

Showing up to 5 results
|